Regional Weather Roundup
Issued by NWS

Home | Current Version | Previous Version | Graphics & Text | Print | Product List | Glossary On
Versions: 1 2 3 4 5 6 7 8 9 10 11 12 13 14 15 16 17 18 19 20 21 22 23 24 25 26 27 28 29 30 31 32 33 34 35 36 37 38 39 40 41 42 43 44 45 46 47 48 49 50
708
ASUS45 KCYS 030210
RWRWY

WYOMING REGIONAL WEATHER ROUNDUP
NATIONAL WEATHER SERVICE CHEYENNE WY
700 PM MST FRI DEC 02 2016

NOTE:  "FAIR" INDICATES FEW OR NO CLOUDS BELOW 12,000 FEET
WITH NO SIGNIFICANT WEATHER AND/OR OBSTRUCTIONS TO VISIBILITY.

WYZ001-030300-
YELLOWSTONE NATIONAL PARK

CITY           SKY/WX    TMP DP  RH WIND       PRES   REMARKS
LK YELLOWSTONE   N/A      5   3  91 NW3       30.11S
W YELLOWSTONE  NOT AVBL

$$
WYZ002>013-054>058-071-098>099-030300-
NORTHERN WYOMING

CITY           SKY/WX    TMP DP  RH WIND       PRES   REMARKS
JACKSON        FAIR      14  10  85 CALM      30.16R
CODY           FAIR      31  10  41 W14G26    30.04F WCI  21
GREYBULL       FAIR      27  18  69 E7        30.09F WCI  19
WORLAND        FAIR      27  18  69 SE12      30.09F WCI  17
SHERIDAN       FAIR      22  15  75 S6        30.05F WCI  14
BUFFALO        FAIR      26  16  65 SW5       30.05F WCI  20
GILLETTE       FAIR      22  19  89 S10       30.09F WCI  11
HULETT         FAIR      23  18  80 SW6       30.12F WCI  16
NEWCASTLE      FAIR      23  19  86 E5        30.16F WCI  17

$$
WYZ014>020-022>026-101>103-030300-
CENTRAL WYOMING

CITY           SKY/WX    TMP DP  RH WIND       PRES   REMARKS
BIG PINEY      FAIR      13   7  77 N10       30.15R WCI   0
PINEDALE       CLOUDY    18  10  73 NW7       30.15R WCI   8
DUBOIS         FAIR      18   5  57 NW12      30.07F WCI   5
LANDER         FAIR      21  10  62 W12       30.09F WCI   9
RIVERTON       FAIR      24  16  71 S7        30.10F WCI  16
CASPER         FAIR      19  14  81 SW9       30.13F WCI   8
DOUGLAS        FAIR      20  17  88 CALM      30.15F

$$
WYZ021-027>030-104>119-030300-
SOUTHERN WYOMING

CITY           SKY/WX    TMP DP  RH WIND       PRES   REMARKS
EVANSTON       FAIR      17   9  70 N6        30.18R WCI   9
FORT BRIDGER   FAIR      15   8  76 W7        30.20R WCI   5
ROCK SPRINGS   FAIR      14  10  84 SW9       30.16R WCI   2
DIXON          FAIR      13   8  83 CALM      30.18S
RAWLINS        FAIR       6   1  80 SE3       30.13S
SARATOGA       CLOUDY    18  16  93 SW5       30.13S WCI  11
LARAMIE        MOCLDY    16  13  88 SE3       30.08S
CHEYENNE       CLOUDY    25  22  88 S7        30.13S WCI  17
TORRINGTON     CLOUDY    30  20  66 S6        30.18S WCI  24
PINE BLUFFS    CLOUDY    27  27 100 SW5       30.18S WCI  21

$$




USA.gov is the U.S. government's official web portal to all federal, state and local government web resources and services.